SCP
0 0 0 0 0 0 0 0 0 0 0 0 0 0 0 0 0 0 0 0 0 0 0 -0 0 0 0 -0 -0 0 0 0 -0 -0 -0 0 0 0 0 0 0 0 0 0
0 0 0 0 0 -0 -0 0 0 0 0 0 0 0 -0 0 0 0 0 0 0 0 0 0 0 0 0 0 0 0 0 0 0 -0 -0 -0 0 0 0 0 0 0 0 0
0 0 0 0 0 -0 -0 0 0 0 0 0 0 0 0 0 0 0 0 0 0 0 0 0 0 0 0 0 0 0 0 0 0 -0 -0 -0 -0 0 0 0 0 0 0 0
0 0 0 0 0 0 0 0 0 0 0 0 0 0 0 0 0 0 0 0 0 0 0 0 0 0 0 0 0 0 0 0 0 -0 -0 -0 -0 -0 -0 0 0 0 0 0
0 0 0 0 0 0 0 0 0 0 0 0 0 0 0 0 0 0 0 0 0 0 0 0 0 0 0 0 0 0 0 0 0 0 0 -0 -0 -0 -0 -0 -0 -0 0 0
0 0 0 0 0 -0 0 0 0 0 0 0 0 0 0 0 0 0 0 0 0 0 0 0 0 0 0 0 0 0 0 0 0 0 0 -0 -0 -0 -0 -0 -0 -0 0 0
0 0 0 0 0 0 0 -0 0 0 0 0 0 0 0 0 0 0 0 0 0 0 0 0 0 0 0 0 0 0 0 0 0 0 0 0 -0 -0 -0 -0 -0 -0 -0 0
0 0 0 0 0 0 0 0 0 0 0 0 0 0 0 0 0 0 0 0 0 0 0 0 0 0 0 0 0 0 0 0 0 0 0 0 0 -0 -0 -0 -0 -0 -0 0
0 0 0 0 0 0 0 0 0 0 0 0 0 0 0 0 0 0 0 0 0 0 0 0 0 0 0 0 0 0 0 0 0 0 0 0 0 -0 -0 -0 -0 -0 -0 -0
0 0 0 0 0 0 0 0 0 0 0 0 0 0 0 0 0 0 0 0 0 0 0 0 0 0 0 0 0 0 0 0 0 0 0 0 0 -0 -0 -0 -0 -0 -0 -0
0 0 0 0 0 0 0 0 0 0 0 0 0 0 0 0 0 0 0 0 0 0 0 0 0 0 0 0 0 0 0 0 0 0 0 0 0 -0 0 0 0 -0 -0 -0
0 0 0 0 0 0 0 0 0 0 0 0 0 0 0 0 0 0 0 0 0 0 0 0 0 0 0 0 0 0 0 0 0 0 0 0 0 0 0 0 0 -0 -0 -0
0 0 0 0 0 0 0 0 0 0 0 0 0 0 0 0 0 0 0 0 0 0 0 0 0 0 0 0 0 0 0 0 0 0 0 0 0 0 0 0 0 0 -0 -0
0 0 0 0 0 0 0 0 0 0 0 0 0 0 0 0 0 0 0 0 0 0 0 0 0 0 0 0 0 0 0 0 0 0 0 0 0 0 0 0 0 0 -0 -0
0 0 0 0 0 0 0 0 0 0 0 0 0 0 0 0 0 0 0 0 0 0 0 0 0 0 0 0 0 0 0 0 0 0 0 0 0 0 0 0 0 0 0 -0
0 0 0 0 0 0 0 0 0 0 0 0 0 0 0 0 0 0 0 0 0 0 0 0 0 0 0 0 0 0 0 0 0 0 0 0 0 0 0 0 0 0 -0 -0
0 0 0 0 0 0 0 0 0 0 0 0 0 0 0 0 0 0 0 0 0 0 0 0 0 0 0 0 0 0 0 0 0 0 0 -0 -0 -0 0 0 0 -0 -0 0
0 0 0 0 0 0 0 0 0 0 0 0 0 0 0 0 0 0 0 0 0 0 0 0 0 0 0 0 0 0 0 0 0 0 0 -0 -0 -0 0 0 -0 -0 0 0
0 0 0 0 0 0 0 0 0 0 0 0 0 0 0 0 0 0 0 0 0 0 0 0 0 0 0 0 0 0 0 0 0 0 0 -0 -0 0 -0 -0 -0 0 0 0
0 0 0 0 0 0 0 0 0 0 0 0 0 0 0 0 0 0 0 0 0 0 0 0 0 0 0 0 0 0 0 0 0 0 -0 -0 0 0 -0 -0 -0 -0 0 0
0 0 0 0 0 0 0 0 0 0 0 0 0 0 0 0 0 0 0 0 0 0 0 0 0 0 0 0 0 0 0 0 0 0 0 0 0 -0 -0 0 -0 0 0 0
0 0 0 0 0 0 0 0 0 0 0 0 0 0 0 0 0 0 0 0 0 0 0 0 0 0 0 0 0 0 0 0 0 0 0 -0 -0 -0 -0 -0 0 0 0 0
0 0 0 0 0 0 0 0 0 0 0 0 0 0 0 0 0 0 0 0 0 0 0 0 0 0 0 0 0 0 0 0 0 0 0 -0 0 -0 -0 -0 0 0 0 0
0 0 0 0 0 0 0 0 0 0 0 0 0 0 0 0 0 0 0 0 0 0 0 0 0 0 0 0 0 0 0 0 0 0 0 -0 -0 -0 0 0 0 0 0 0
0 0 0 0 0 0 0 0 0 0 0 0 0 0 0 0 0 0 0 0 0 0 0 0 0 0 0 0 0 0 0 0 0 0 0 0 0 -0 0 -0 0 -0 -0 0
0 0 0 0 0 0 0 0 0 0 0 0 0 0 0 0 0 0 0 0 0 0 0 0 0 0 0 0 0 0 0 0 0 0 0 0 0 0 0 0 -0 -0 -0 -0
Wind_Speed_500mb
17 17 18 17 16 4 7 14 21 20 10 27 15 30 31 19 17 16 21 27 31 36 35 36 42 45 49 52 53 56 60 65 69 70 75 58 65 48 47 101 107 108 93 92
5 12 8 5 8 2 7 18 16 16 8 15 26 43 36 25 18 15 22 28 32 37 36 35 42 48 54 57 60 59 61 72 72 76 84 87 94 92 96 64 91 109 114 104
9 10 4 6 3 12 6 9 19 17 32 18 24 24 22 21 17 17 21 24 30 36 42 41 43 48 52 58 59 60 64 73 75 75 78 82 105 104 109 102 84 59 77 113
10 6 1 8 6 12 5 3 18 25 16 8 10 12 15 17 17 15 14 20 29 35 41 46 48 51 52 58 59 58 59 63 68 70 77 73 72 98 108 104 105 113 106 66
6 1 3 8 9 12 8 24 18 13 12 13 12 10 3 15 14 9 13 21 28 34 42 49 51 53 55 55 61 68 65 60 63 59 68 74 70 69 75 73 86 97 99 81
6 2 1 7 14 14 30 23 11 7 6 6 13 6 20 8 6 10 14 24 32 40 47 52 55 58 59 58 62 65 71 68 60 61 62 72 69 68 70 66 63 80 88 99
8 5 5 2 11 10 20 14 5 4 5 7 13 12 24 18 13 18 22 30 38 46 51 60 61 63 66 69 69 69 70 74 67 62 61 63 65 65 62 71 58 71 76 79
4 7 10 3 2 2 9 10 7 9 8 19 11 13 8 1 22 29 29 29 37 49 57 61 64 67 67 69 72 74 73 75 71 66 64 63 63 70 69 62 58 69 68 71
2 4 6 3 1 4 7 2 8 8 4 7 10 15 31 8 2 4 15 30 51 59 58 64 66 69 70 71 71 72 76 74 68 67 68 68 70 67 63 57 62 62 57 77
4 7 1 7 3 3 5 9 4 3 9 12 13 19 22 19 17 14 25 45 58 65 63 66 67 70 70 67 71 73 75 73 69 72 70 65 68 68 64 60 62 64 67 67
4 1 5 1 11 8 6 5 4 5 3 6 13 12 7 16 13 13 31 47 63 68 69 69 68 70 66 68 69 77 72 69 71 68 65 65 64 64 55 54 55 63 64 66
9 1 8 4 8 2 4 8 13 6 8 8 6 21 18 12 10 19 48 55 62 68 72 69 68 68 68 71 75 73 66 65 68 67 62 62 57 55 50 52 52 58 65 70
14 6 7 7 4 2 10 12 16 6 3 18 8 15 10 11 18 43 53 59 64 70 70 67 67 66 70 75 77 65 67 71 73 66 61 53 49 48 53 55 51 53 62 50
15 7 11 15 4 4 9 15 26 18 11 13 34 49 58 43 36 53 57 58 63 66 66 66 64 65 67 71 66 67 60 68 69 53 51 47 43 48 54 55 49 46 49 46
9 10 9 22 29 22 24 26 28 41 44 21 35 34 57 51 50 59 52 55 63 62 64 67 68 68 66 60 59 55 58 70 61 46 45 43 44 47 51 49 46 44 42 33
11 5 1 9 20 22 30 44 39 48 50 52 65 67 61 74 48 35 42 54 60 56 61 67 68 66 62 57 60 64 62 64 58 51 44 42 45 46 45 46 44 42 41 28
17 10 6 9 3 18 23 32 48 27 29 45 39 48 36 27 37 32 45 56 55 52 60 59 59 59 58 57 60 64 69 56 55 52 47 46 46 45 40 41 42 36 40 33
18 12 6 7 4 14 5 2 10 48 26 47 38 39 44 41 51 30 48 56 43 49 58 54 54 59 58 62 59 64 54 48 49 48 47 45 44 42 40 39 37 30 26 22
20 13 6 8 9 27 25 15 15 24 20 43 51 47 54 40 26 35 14 21 35 46 54 53 54 56 55 54 57 53 45 44 43 43 42 42 41 40 36 36 31 26 14 2
17 15 13 7 10 14 6 11 18 16 16 23 43 37 31 16 11 18 25 40 42 47 49 56 54 55 51 49 55 50 44 41 40 40 38 35 35 33 29 27 21 15 5 8
12 12 31 22 16 20 25 30 22 6 8 33 44 39 27 16 29 34 41 47 41 46 50 50 47 49 48 45 49 46 46 42 40 38 36 33 30 25 23 22 15 11 16 23
22 25 14 16 18 27 41 25 18 5 11 32 35 33 28 37 45 43 46 45 43 47 46 42 40 42 39 38 40 42 45 43 38 34 32 32 28 25 24 20 18 19 23 39
14 18 17 31 21 4 73 18 57 11 15 26 31 28 26 32 41 41 44 37 41 42 39 37 34 32 27 27 31 35 42 44 36 32 33 31 30 28 25 23 22 30 41 50
17 37 9 5 21 41 48 70 75 53 63 54 50 52 46 48 48 45 45 39 42 39 34 33 28 24 17 19 23 30 35 40 39 38 38 38 37 35 34 32 30 36 43 51
12 31 22 23 26 34 50 79 93 82 86 86 82 75 58 52 53 42 47 47 44 40 35 32 27 19 11 12 15 24 26 32 33 30 32 36 43 43 42 43 41 39 39 39
31 18 19 15 31 40 23 51 57 67 63 61 48 49 47 51 49 40 48 49 43 40 35 37 28 23 17 4 8 18 22 25 29 29 29 31 34 39 40 39 43 38 37 37
Wind_Direction_500mb
21 64 56 52 52 53 293 305 304 311 345 316 280 284 296 272 271 309 329 336 331 326 322 320 320 324 329 327 331 330 331 330 335 313 291 299 304 325 318 244 248 252 244 228
121 73 50 40 35 0 242 303 340 307 34 314 295 284 280 238 258 291 324 334 330 327 332 326 321 320 321 320 321 317 320 322 327 323 326 294 302 305 305 331 249 255 250 232
58 80 54 290 313 343 204 290 329 303 315 267 292 264 197 220 243 278 297 321 325 333 326 328 324 324 322 319 318 312 314 313 313 317 314 308 293 301 308 306 309 313 251 240
53 82 357 288 298 335 285 69 315 300 314 324 2 295 229 201 237 258 300 321 323 331 328 324 324 320 319 319 320 316 311 312 310 311 309 309 310 302 309 307 303 304 306 298
83 278 340 299 348 325 312 333 305 292 276 323 172 265 187 176 245 278 319 318 325 326 323 324 324 321 318 317 313 312 311 306 307 305 305 304 303 299 301 309 303 302 304 297
86 114 280 343 305 271 300 292 243 248 253 243 113 0 284 219 272 288 309 320 324 323 321 320 323 321 318 316 315 311 310 306 300 301 302 301 297 295 295 306 312 301 297 296
168 166 146 328 299 218 325 299 295 265 236 285 150 285 255 280 278 280 297 307 313 317 317 320 323 323 320 319 318 315 311 305 303 299 299 299 297 291 284 286 299 296 287 294
239 229 190 157 81 319 349 334 334 301 301 307 208 241 260 290 281 277 286 296 311 310 315 317 319 320 319 319 318 316 312 306 304 300 298 297 296 301 286 277 285 287 296 295
205 205 111 32 235 287 82 277 351 304 58 283 246 255 266 261 327 319 299 305 322 321 316 315 319 319 318 317 318 316 312 306 303 302 297 298 297 302 290 283 279 287 295 284
107 276 52 111 214 71 307 110 234 187 305 293 274 286 260 281 317 324 331 326 317 316 314 318 319 318 315 317 320 318 312 305 303 304 297 296 295 303 294 288 287 289 274 280
139 222 127 242 196 180 152 198 214 300 234 278 306 279 21 312 300 300 321 320 321 318 317 318 318 316 316 317 319 317 312 307 307 307 299 295 296 300 296 291 288 287 273 274
174 255 254 258 123 58 327 244 204 239 181 241 301 269 286 290 282 302 317 322 323 318 318 320 319 320 319 319 321 322 315 311 308 310 299 299 299 301 299 297 293 291 281 271
178 201 287 201 176 183 221 202 226 295 303 227 227 257 145 194 245 295 314 321 320 319 322 322 321 322 321 321 320 319 313 311 308 306 307 301 302 301 301 303 301 288 280 283
171 228 239 252 26 62 207 201 209 197 228 243 227 278 281 288 297 323 319 316 318 318 321 321 322 323 321 320 322 320 320 318 319 311 311 309 303 305 311 312 311 297 290 285
185 247 226 268 280 262 259 252 203 208 223 240 263 267 280 299 305 309 309 314 317 321 322 322 325 324 322 323 324 323 319 330 334 317 313 307 315 317 319 322 315 296 290 296
185 243 40 268 272 277 267 260 233 231 239 247 260 273 270 281 288 294 306 310 316 316 318 321 323 324 324 327 323 321 322 331 334 330 323 326 319 322 323 326 319 302 295 297
170 200 184 267 28 314 272 252 217 214 226 225 240 247 282 291 298 304 308 306 306 311 316 321 325 323 324 326 325 325 329 331 330 330 330 326 324 321 323 326 319 307 298 294
179 176 193 290 296 253 288 257 212 204 234 217 244 260 267 278 285 301 293 294 297 312 316 323 325 328 329 334 333 327 332 331 328 330 329 330 328 328 327 331 324 327 310 298
187 182 198 258 231 301 284 183 171 182 260 223 229 245 258 274 288 300 297 305 302 309 317 321 327 331 333 340 340 341 340 333 333 334 335 337 335 330 337 337 338 331 324 206
199 253 217 148 245 253 44 152 151 164 271 200 201 228 248 225 253 291 316 312 312 318 324 326 335 341 345 348 349 352 348 344 340 343 345 346 342 341 346 347 346 353 13 122
177 201 218 219 252 274 254 147 155 220 237 167 190 210 213 213 246 292 304 309 310 319 327 329 338 349 354 355 356 359 360 354 351 353 357 358 357 359 4 3 14 58 122 130
168 169 187 200 226 268 173 133 204 211 155 177 195 215 232 263 272 275 299 305 304 315 324 327 337 349 359 5 12 14 15 7 7 12 17 22 24 27 22 31 63 89 109 116
210 202 183 200 207 147 181 210 217 237 226 216 222 240 248 264 270 282 292 298 299 306 315 321 328 340 359 8 22 31 33 23 20 31 39 42 42 43 55 59 80 100 115 113
233 223 234 150 210 230 224 242 242 244 248 254 266 276 272 279 277 288 287 286 296 299 299 316 319 326 355 8 18 42 39 33 31 42 51 62 63 61 62 71 86 105 109 115
191 162 202 248 265 281 256 249 252 253 255 259 271 272 275 275 267 279 289 280 292 290 283 299 305 296 321 13 26 46 49 48 41 46 59 69 75 75 79 85 87 90 97 101
184 178 196 234 191 213 246 260 258 255 263 257 269 273 267 267 266 272 284 281 284 279 276 276 284 271 276 278 37 57 63 66 60 58 57 62 73 81 85 91 95 96 95 101
Wind_Speed_850mb
17 17 18 17 16 4 7 14 21 20 10 27 15 30 31 19 17 16 21 27 31 36 35 36 42 45 49 52 53 56 60 65 69 70 75 58 65 48 47 101 107 108 93 92
5 12 8 5 8 2 7 18 16 16 8 15 26 43 36 25 18 15 22 28 32 37 36 35 42 48 54 57 60 59 61 72 72 76 84 87 94 92 96 64 91 109 114 104
9 10 4 6 3 12 6 9 19 17 32 18 24 24 22 21 17 17 21 24 30 36 42 41 43 48 52 58 59 60 64 73 75 75 78 82 105 104 109 102 84 59 77 113
10 6 1 8 6 12 5 3 18 25 16 8 10 12 15 17 17 15 14 20 29 35 41 46 48 51 52 58 59 58 59 63 68 70 77 73 72 98 108 104 105 113 106 66
6 1 3 8 9 12 8 24 18 13 12 13 12 10 3 15 14 9 13 21 28 34 42 49 51 53 55 55 61 68 65 60 63 59 68 74 70 69 75 73 86 97 99 81
6 2 1 7 14 14 30 23 11 7 6 6 13 6 20 8 6 10 14 24 32 40 47 52 55 58 59 58 62 65 71 68 60 61 62 72 69 68 70 66 63 80 88 99
8 5 5 2 11 10 20 14 5 4 5 7 13 12 24 18 13 18 22 30 38 46 51 60 61 63 66 69 69 69 70 74 67 62 61 63 65 65 62 71 58 71 76 79
4 7 10 3 2 2 9 10 7 9 8 19 11 13 8 1 22 29 29 29 37 49 57 61 64 67 67 69 72 74 73 75 71 66 64 63 63 70 69 62 58 69 68 71
2 4 6 3 1 4 7 2 8 8 4 7 10 15 31 8 2 4 15 30 51 59 58 64 66 69 70 71 71 72 76 74 68 67 68 68 70 67 63 57 62 62 57 77
4 7 1 7 3 3 5 9 4 3 9 12 13 19 22 19 17 14 25 45 58 65 63 66 67 70 70 67 71 73 75 73 69 72 70 65 68 68 64 60 62 64 67 67
4 1 5 1 11 8 6 5 4 5 3 6 13 12 7 16 13 13 31 47 63 68 69 69 68 70 66 68 69 77 72 69 71 68 65 65 64 64 55 54 55 63 64 66
9 1 8 4 8 2 4 8 13 6 8 8 6 21 18 12 10 19 48 55 62 68 72 69 68 68 68 71 75 73 66 65 68 67 62 62 57 55 50 52 52 58 65 70
14 6 7 7 4 2 10 12 16 6 3 18 8 15 10 11 18 43 53 59 64 70 70 67 67 66 70 75 77 65 67 71 73 66 61 53 49 48 53 55 51 53 62 50
15 7 11 15 4 4 9 15 26 18 11 13 34 49 58 43 36 53 57 58 63 66 66 66 64 65 67 71 66 67 60 68 69 53 51 47 43 48 54 55 49 46 49 46
9 10 9 22 29 22 24 26 28 41 44 21 35 34 57 51 50 59 52 55 63 62 64 67 68 68 66 60 59 55 58 70 61 46 45 43 44 47 51 49 46 44 42 33
11 5 1 9 20 22 30 44 39 48 50 52 65 67 61 74 48 35 42 54 60 56 61 67 68 66 62 57 60 64 62 64 58 51 44 42 45 46 45 46 44 42 41 28
17 10 6 9 3 18 23 32 48 27 29 45 39 48 36 27 37 32 45 56 55 52 60 59 59 59 58 57 60 64 69 56 55 52 47 46 46 45 40 41 42 36 40 33
18 12 6 7 4 14 5 2 10 48 26 47 38 39 44 41 51 30 48 56 43 49 58 54 54 59 58 62 59 64 54 48 49 48 47 45 44 42 40 39 37 30 26 22
20 13 6 8 9 27 25 15 15 24 20 43 51 47 54 40 26 35 14 21 35 46 54 53 54 56 55 54 57 53 45 44 43 43 42 42 41 40 36 36 31 26 14 2
17 15 13 7 10 14 6 11 18 16 16 23 43 37 31 16 11 18 25 40 42 47 49 56 54 55 51 49 55 50 44 41 40 40 38 35 35 33 29 27 21 15 5 8
12 12 31 22 16 20 25 30 22 6 8 33 44 39 27 16 29 34 41 47 41 46 50 50 47 49 48 45 49 46 46 42 40 38 36 33 30 25 23 22 15 11 16 23
22 25 14 16 18 27 41 25 18 5 11 32 35 33 28 37 45 43 46 45 43 47 46 42 40 42 39 38 40 42 45 43 38 34 32 32 28 25 24 20 18 19 23 39
14 18 17 31 21 4 73 18 57 11 15 26 31 28 26 32 41 41 44 37 41 42 39 37 34 32 27 27 31 35 42 44 36 32 33 31 30 28 25 23 22 30 41 50
17 37 9 5 21 41 48 70 75 53 63 54 50 52 46 48 48 45 45 39 42 39 34 33 28 24 17 19 23 30 35 40 39 38 38 38 37 35 34 32 30 36 43 51
12 31 22 23 26 34 50 79 93 82 86 86 82 75 58 52 53 42 47 47 44 40 35 32 27 19 11 12 15 24 26 32 33 30 32 36 43 43 42 43 41 39 39 39
31 18 19 15 31 40 23 51 57 67 63 61 48 49 47 51 49 40 48 49 43 40 35 37 28 23 17 4 8 18 22 25 29 29 29 31 34 39 40 39 43 38 37 37
Wind_Direction_850mb
21 64 56 52 52 53 293 305 304 311 345 316 280 284 296 272 271 309 329 336 331 326 322 320 320 324 329 327 331 330 331 330 335 313 291 299 304 325 318 244 248 252 244 228
121 73 50 40 35 0 242 303 340 307 34 314 295 284 280 238 258 291 324 334 330 327 332 326 321 320 321 320 321 317 320 322 327 323 326 294 302 305 305 331 249 255 250 232
58 80 54 290 313 343 204 290 329 303 315 267 292 264 197 220 243 278 297 321 325 333 326 328 324 324 322 319 318 312 314 313 313 317 314 308 293 301 308 306 309 313 251 240
53 82 357 288 298 335 285 69 315 300 314 324 2 295 229 201 237 258 300 321 323 331 328 324 324 320 319 319 320 316 311 312 310 311 309 309 310 302 309 307 303 304 306 298
83 278 340 299 348 325 312 333 305 292 276 323 172 265 187 176 245 278 319 318 325 326 323 324 324 321 318 317 313 312 311 306 307 305 305 304 303 299 301 309 303 302 304 297
86 114 280 343 305 271 300 292 243 248 253 243 113 0 284 219 272 288 309 320 324 323 321 320 323 321 318 316 315 311 310 306 300 301 302 301 297 295 295 306 312 301 297 296
168 166 146 328 299 218 325 299 295 265 236 285 150 285 255 280 278 280 297 307 313 317 317 320 323 323 320 319 318 315 311 305 303 299 299 299 297 291 284 286 299 296 287 294
239 229 190 157 81 319 349 334 334 301 301 307 208 241 260 290 281 277 286 296 311 310 315 317 319 320 319 319 318 316 312 306 304 300 298 297 296 301 286 277 285 287 296 295
205 205 111 32 235 287 82 277 351 304 58 283 246 255 266 261 327 319 299 305 322 321 316 315 319 319 318 317 318 316 312 306 303 302 297 298 297 302 290 283 279 287 295 284
107 276 52 111 214 71 307 110 234 187 305 293 274 286 260 281 317 324 331 326 317 316 314 318 319 318 315 317 320 318 312 305 303 304 297 296 295 303 294 288 287 289 274 280
139 222 127 242 196 180 152 198 214 300 234 278 306 279 21 312 300 300 321 320 321 318 317 318 318 316 316 317 319 317 312 307 307 307 299 295 296 300 296 291 288 287 273 274
174 255 254 258 123 58 327 244 204 239 181 241 301 269 286 290 282 302 317 322 323 318 318 320 319 320 319 319 321 322 315 311 308 310 299 299 299 301 299 297 293 291 281 271
178 201 287 201 176 183 221 202 226 295 303 227 227 257 145 194 245 295 314 321 320 319 322 322 321 322 321 321 320 319 313 311 308 306 307 301 302 301 301 303 301 288 280 283
171 228 239 252 26 62 207 201 209 197 228 243 227 278 281 288 297 323 319 316 318 318 321 321 322 323 321 320 322 320 320 318 319 311 311 309 303 305 311 312 311 297 290 285
185 247 226 268 280 262 259 252 203 208 223 240 263 267 280 299 305 309 309 314 317 321 322 322 325 324 322 323 324 323 319 330 334 317 313 307 315 317 319 322 315 296 290 296
185 243 40 268 272 277 267 260 233 231 239 247 260 273 270 281 288 294 306 310 316 316 318 321 323 324 324 327 323 321 322 331 334 330 323 326 319 322 323 326 319 302 295 297
170 200 184 267 28 314 272 252 217 214 226 225 240 247 282 291 298 304 308 306 306 311 316 321 325 323 324 326 325 325 329 331 330 330 330 326 324 321 323 326 319 307 298 294
179 176 193 290 296 253 288 257 212 204 234 217 244 260 267 278 285 301 293 294 297 312 316 323 325 328 329 334 333 327 332 331 328 330 329 330 328 328 327 331 324 327 310 298
187 182 198 258 231 301 284 183 171 182 260 223 229 245 258 274 288 300 297 305 302 309 317 321 327 331 333 340 340 341 340 333 333 334 335 337 335 330 337 337 338 331 324 206
199 253 217 148 245 253 44 152 151 164 271 200 201 228 248 225 253 291 316 312 312 318 324 326 335 341 345 348 349 352 348 344 340 343 345 346 342 341 346 347 346 353 13 122
177 201 218 219 252 274 254 147 155 220 237 167 190 210 213 213 246 292 304 309 310 319 327 329 338 349 354 355 356 359 360 354 351 353 357 358 357 359 4 3 14 58 122 130
168 169 187 200 226 268 173 133 204 211 155 177 195 215 232 263 272 275 299 305 304 315 324 327 337 349 359 5 12 14 15 7 7 12 17 22 24 27 22 31 63 89 109 116
210 202 183 200 207 147 181 210 217 237 226 216 222 240 248 264 270 282 292 298 299 306 315 321 328 340 359 8 22 31 33 23 20 31 39 42 42 43 55 59 80 100 115 113
233 223 234 150 210 230 224 242 242 244 248 254 266 276 272 279 277 288 287 286 296 299 299 316 319 326 355 8 18 42 39 33 31 42 51 62 63 61 62 71 86 105 109 115
191 162 202 248 265 281 256 249 252 253 255 259 271 272 275 275 267 279 289 280 292 290 283 299 305 296 321 13 26 46 49 48 41 46 59 69 75 75 79 85 87 90 97 101
184 178 196 234 191 213 246 260 258 255 263 257 269 273 267 267 266 272 284 281 284 279 276 276 284 271 276 278 37 57 63 66 60 58 57 62 73 81 85 91 95 96 95 101